Location: Newark
(35.8833°N, 14.5000°E)
Time: 09:33:57
(UTC+00:00)

NOAA 15 - Pass Details

Date: 20 May 2019
Orbit: 798 x 812 km, 98.7° (Epoch: 18 June)

Event Time Altitude Azimuth Distance (km) Brightness Sun altitude
Rises 18:56:48 0° 218° (SW) 3,296 7.8 -10.1°
Reaches altitude 10° 19:01:03 10° 251° (WSW) 2,376 7.6 -10.8°
Maximum altitude 19:02:37 11° 269° (W) 2,290 7.8 -11.0°
Drops below altitude 10° 19:04:12 10° 287° (WNW) 2,383 8.3 -11.3°
Sets 19:08:31 0° 321° (NW) 3,324 9.5 -12.0°
